Weather History for George, South Africa

Change the Weather History Date:

Thursday, May 16, 2013

  Actual Average Record
Temperature  
Mean Temperature 56 °F -  
Max Temperature 65 °F 66 °F 82 °F (1997)
Min Temperature 48 °F 47 °F 44 °F (2007)
Degree Days  
Heating Degree Days 8    
Growing Degree Days 6 (Base 50)    
Moisture  
Dew Point 52 °F    
Average Humidity 82    
Maximum Humidity 94    
Minimum Humidity 56    
Precipitation  
Precipitation 0.01 in - - ()
Sea Level Pressure  
Sea Level Pressure 30.04 in    
Wind  
Wind Speed 4 mph ()    
Max Wind Speed 12 mph    
Max Gust Speed -    
Visibility 8.9 miles    
Events Rain    
Averages and records for this station are not official NWS values.
T = Trace of Precipitation, MM = Missing Value Source: Averaged Metar Reports

Daily Weather History Graph

Daily Weather History Graph

Search for Another Location

Airport:

Trip Planner

Search our weather history database for the weather conditions in past years. The results will help you decide how hot, cold, wet, or windy it might be!

Date:

Astronomy

May. 16, 2013 Rise Set
Actual Time 7:16 AM SAST 5:36 PM SAST
Civil Twilight 6:49 AM SAST 6:03 PM SAST
Nautical Twilight 6:19 AM SAST 6:33 PM SAST
Astronomical Twilight 5:49 AM SAST 7:03 PM SAST
Moon 11:58 AM SAST (5/16) 11:05 PM SAST (5/16)
Length of Visible Light 11h 13m
Length of Day
10h 20m
Waxing Crescent, 33% of the Moon is Illuminated
May 16
Waxing Crescent
May 18
First Quarter
May 25
Full
May 31
Last Quarter
Jun 8
New

Hourly Weather History & Observations

Time (SAST) Temp. Dew Point Humidity Pressure Visibility Wind Dir Wind Speed Gust Speed Precip Events Conditions
12:00 AM 57.2 °F 53.6 °F 88% 30.01 in 6.2 mi WNW 2.3 mph - N/A   Overcast
1:00 AM 55.4 °F 51.8 °F 88% 30.01 in - WSW 3.5 mph - N/A   Clear
2:00 AM 54 °F 52 °F 89% 30.00 in 12 mi West 3.5 mph - -  
2:00 AM 53.6 °F 51.8 °F 94% 29.98 in - West 3.5 mph - N/A   Clear
3:00 AM 51.8 °F 50.0 °F 94% 29.98 in - NNE 3.5 mph - N/A   Clear
4:00 AM 51.8 °F 50.0 °F 94% 29.98 in - North 2.3 mph - N/A   Clear
5:00 AM 49 °F 46 °F 87% 29.98 in 19 mi NW 3.5 mph - -  
5:00 AM 48.2 °F 46.4 °F 93% 29.95 in - NW 4.6 mph - N/A   Clear
6:00 AM 48.2 °F 46.4 °F 93% 29.95 in - NW 4.6 mph - N/A   Clear
7:00 AM 48.2 °F 46.4 °F 93% 29.95 in - NW 4.6 mph - N/A   Clear
8:00 AM 49 °F 47 °F 88% 29.99 in 19 mi WNW 3.5 mph - -   Scattered Clouds
8:00 AM 50.0 °F 46.4 °F 87% 29.98 in 6.2 mi NW 3.5 mph - N/A   Partly Cloudy
10:00 AM 60.8 °F 53.6 °F 77% 29.98 in 6.2 mi NNW 4.6 mph - N/A   Partly Cloudy
11:00 AM 64 °F 52 °F 57% 30.00 in 19 mi WSW 5.8 mph - -   Scattered Clouds
11:00 AM 64.4 °F 51.8 °F 64% 30.01 in 6.2 mi WSW 5.8 mph - N/A   Partly Cloudy
12:00 PM 64.4 °F 53.6 °F 68% 30.01 in 6.2 mi SW 6.9 mph - N/A   Partly Cloudy
1:00 PM 64.4 °F 53.6 °F 68% 30.01 in 6.2 mi SSW 9.2 mph - N/A   Partly Cloudy
2:00 PM 66 °F 54 °F 56% 30.01 in 12 mi SW 5.8 mph - -   Partly Cloudy
2:00 PM 66.2 °F 53.6 °F 64% 30.01 in 6.2 mi SW 5.8 mph - N/A   Partly Cloudy
3:00 PM 60.8 °F 57.2 °F 88% 30.01 in 6.2 mi SSW 10.4 mph - N/A Rain Light Rain
4:00 PM 60.8 °F 55.4 °F 82% 30.04 in 6.2 mi SSW 9.2 mph - N/A   Partly Cloudy
5:00 PM 60 °F 55 °F 78% 30.09 in 12 mi SSW 11.5 mph - -   Mostly Cloudy
5:00 PM 59.0 °F 55.4 °F 88% 30.06 in 6.2 mi SSW 11.5 mph - N/A   Mostly Cloudy
6:00 PM 57.2 °F 53.6 °F 88% 30.09 in 6.2 mi SW 8.1 mph - N/A   Scattered Clouds
7:00 PM 57.2 °F 51.8 °F 82% 30.15 in 6.2 mi WNW 4.6 mph - N/A   Scattered Clouds
8:00 PM 56 °F 52 °F 83% 30.19 in 12 mi NW 5.8 mph - -   Mostly Cloudy
8:00 PM 55.4 °F 51.8 °F 88% 30.18 in 6.2 mi NW 5.8 mph - N/A   Mostly Cloudy
9:00 PM 57.2 °F 51.8 °F 82% 30.18 in 6.2 mi NW 6.9 mph - N/A   Mostly Cloudy
10:00 PM 57.2 °F 51.8 °F 82% 30.21 in 6.2 mi WNW 6.9 mph - N/A   Mostly Cloudy
11:00 PM 55.4 °F 51.8 °F 88% 30.24 in 6.2 mi NW 5.8 mph - N/A   Mostly Cloudy